Location: Goettingen
(51.5300°N, 9.9433°E)
Time: 22:26:37
(UTC+02:00)

ISS - Pass Details

Date: 27 July 2021
Orbit: 419 x 421 km, 51.6° (Epoch: 28 July)

Event Time Altitude Azimuth Distance (km) Brightness Sun altitude
Rises 23:08:16 0° 283° (WNW) 2,373 0.8 -13.2°
Reaches altitude 10° 23:10:37 10° 269° (W) 1,505 -0.5 -13.4°
Maximum altitude 23:13:23 24° 214° (SSW) 923 -2.3 -13.7°
Enters shadow 23:14:22 21° 187° (S) 1,014 -2.3 -13.8°
